Location: *
(46.1333°S, 161.2167°W)
Time: 04:06:42
(UTC+00:00)

Cosmos 1953 - Pass Details

Date: 15 July 2020
Orbit: 540 x 557 km, 82.5° (Epoch: 10 August)

Event Time Altitude Azimuth Distance (km) Brightness Sun altitude
Exits shadow 16:14:26 67° 226° (SW) 610 2.2 -21.4°
Maximum altitude 16:14:51 75° 276° (W) 583 2.2 -21.3°
Drops below altitude 10° 16:18:51 10° 1° (N) 1,824 5.1 -20.7°
Sets 16:21:00 0° 3° (N) 2,705 6.0 -20.3°
